F4GCF-13 Weather Reports


time (UTC)temp
C
wind
direction
speed
KPH
gust
KPH
rain 1hr
cm
rain 24hr
cm
rain mn
cm
humidity
%
barometer
mb
20260507150912 20 133 8.0 9.7 0.00 0.00 0.00 49 1012.0
20260507150837 20 133 8.0 9.7 0.00 0.00 0.00 49 1012.0
20260507150339 20 104 4.8 12.9 0.00 0.00 0.00 49 1012.0
20260507145838 20 94 3.2 6.4 0.00 0.00 0.00 48 1012.0
20260507145339 20 83 6.4 9.7 0.00 0.00 0.00 47 1012.0
20260507144913 20 106 4.8 11.3 0.00 0.00 0.00 49 1012.0
20260507144837 20 106 4.8 11.3 0.00 0.00 0.00 49 1012.0
20260507144337 20 27 6.4 9.7 0.00 0.00 0.00 48 1012.0
20260507143840 20 120 9.7 12.9 0.00 0.00 0.00 49 1012.0
20260507143338 19 127 9.7 11.3 0.00 0.00 0.00 47 1012.0
20260507142908 20 96 9.7 14.5 0.00 0.00 0.00 50 1012.0
20260507142837 20 96 9.7 14.5 0.00 0.00 0.00 50 1012.0
20260507142338 20 128 4.8 8.0 0.00 0.00 0.00 48 1013.0
20260507141838 20 43 6.4 8.0 0.00 0.00 0.00 48 1013.0
20260507141434 20 58 4.8 16.1 0.00 0.00 0.00 49 1013.0
20260507141338 20 58 4.8 16.1 0.00 0.00 0.00 49 1013.0
20260507140837 20 39 6.4 6.4 0.00 0.00 0.00 48 1013.0
20260507140339 20 96 8.0 11.3 0.00 0.00 0.00 50 1013.0
20260507135838 20 124 3.2 9.7 0.00 0.00 0.00 51 1013.0
20260507135338 20 82 4.8 8.0 0.00 0.00 0.00 50 1014.0
20260507134837 19 61 3.2 6.4 0.00 0.00 0.00 49 1014.0
20260507133839 20 102 8.0 8.0 0.00 0.00 0.00 50 1014.0
20260507133338 20 77 4.8 12.9 0.00 0.00 0.00 50 1014.0
20260507132838 19 96 6.4 9.7 0.00 0.00 0.00 51 1014.0
20260507132418 20 91 4.8 9.7 0.00 0.13 0.00 51 1014.0
20260507132338 20 91 4.8 9.7 0.00 0.13 0.00 51 1014.0
20260507131837 19 82 6.4 8.0 0.00 0.13 0.00 50 1014.0
20260507131424 19 113 11.3 9.7 0.00 0.13 0.00 53 1014.0
20260507131339 19 113 11.3 9.7 0.00 0.13 0.00 53 1014.0
20260507130910 19 59 6.4 9.7 0.00 0.13 0.00 52 1013.0
20260507130838 19 59 6.4 9.7 0.00 0.13 0.00 52 1013.0
20260507130414 19 84 9.7 12.9 0.00 0.13 0.00 53 1013.0
20260507130338 19 84 9.7 12.9 0.00 0.13 0.00 53 1013.0
20260507124839 19 87 6.4 11.3 0.00 0.13 0.00 51 1014.0
20260507124518 19 108 9.7 12.9 0.00 0.13 0.00 53 1014.0
20260507124412 19 108 9.7 12.9 0.00 0.13 0.00 53 1014.0
20260507124338 19 108 9.7 12.9 0.00 0.13 0.00 53 1014.0
20260507123838 19 45 4.8 6.4 0.00 0.13 0.00 54 1014.0
20260507123338 18 109 6.4 9.7 0.00 0.13 0.00 53 1014.0
20260507122910 18 113 4.8 9.7 0.00 0.13 0.00 54 1014.0
20260507122837 18 113 4.8 9.7 0.00 0.13 0.00 54 1014.0
20260507122339 18 97 8.0 11.3 0.00 0.13 0.00 54 1014.0
20260507121837 18 37 4.8 11.3 0.00 0.13 0.00 54 1014.0
20260507121337 18 16 3.2 6.4 0.00 0.13 0.00 54 1014.0
20260507120838 18 105 6.4 11.3 0.00 0.13 0.00 54 1014.0
20260507120338 18 79 6.4 9.7 0.00 0.13 0.00 53 1014.0
20260507115912 18 95 4.8 6.4 0.00 0.13 0.00 54 1014.0
20260507115837 18 95 4.8 6.4 0.00 0.13 0.00 54 1014.0
20260507114918 18 51 4.8 9.7 0.00 0.13 0.00 54 1015.0
20260507114839 18 51 4.8 9.7 0.00 0.13 0.00 54 1015.0
20260507114338 18 50 6.4 9.7 0.00 0.13 0.00 52 1015.0
20260507113337 18 149 3.2 6.4 0.00 0.13 0.00 51 1015.0
20260507112911 18 347 4.8 4.8 0.00 0.13 0.00 52 1015.0
20260507112838 18 347 4.8 4.8 0.00 0.13 0.00 52 1015.0
20260507112338 18 100 6.4 6.4 0.00 0.13 0.00 53 1015.0
20260507111838 18 134 6.4 6.4 0.00 0.13 0.00 54 1015.0
20260507111338 18 86 6.4 9.7 0.00 0.13 0.00 54 1015.0
20260507110837 18 99 3.2 6.4 0.00 0.13 0.00 54 1015.0
20260507110337 18 95 8.0 6.4 0.00 0.13 0.00 54 1015.0
20260507105838 17 271 3.2 9.7 0.00 0.13 0.00 53 1015.0
20260507105338 17 60 4.8 8.0 0.00 0.13 0.00 55 1016.0
20260507104341 17 87 3.2 4.8 0.00 0.13 0.00 61 1016.0
20260507104338 17 87 3.2 4.8 0.00 0.13 0.00 61 1016.0
20260507103838 17 12 4.8 6.4 0.00 0.13 0.00 60 1016.0
20260507103410 17 178 1.6 1.6 0.00 0.13 0.00 61 1016.0
20260507103338 17 178 1.6 1.6 0.00 0.13 0.00 61 1016.0
20260507102838 17 351 6.4 6.4 0.00 0.13 0.00 61 1016.0
20260507102338 17 22 3.2 6.4 0.00 0.13 0.00 60 1016.0
20260507101337 16 343 3.2 4.8 0.00 0.13 0.00 58 1016.0
20260507100839 16 6 3.2 6.4 0.00 0.13 0.00 59 1016.0
20260507100338 16 74 3.2 4.8 0.00 0.13 0.00 59 1016.0
20260507095838 17 158 3.2 9.7 0.00 0.13 0.00 59 1016.0
20260507094837 17 60 4.8 3.2 0.00 0.13 0.00 59 1015.0
20260507094508 17 322 4.8 8.0 0.00 0.13 0.00 59 1015.0
20260507094337 17 322 4.8 8.0 0.00 0.13 0.00 59 1015.0
20260507093914 17 95 3.2 6.4 0.00 0.13 0.00 60 1016.0
20260507093838 17 95 3.2 6.4 0.00 0.13 0.00 60 1016.0
20260507093411 16 330 3.2 1.6 0.00 0.13 0.00 62 1016.0
20260507093338 16 330 3.2 1.6 0.00 0.13 0.00 62 1016.0
20260507092909 16 99 1.6 4.8 0.00 0.13 0.00 57 1016.0
20260507092837 16 99 1.6 4.8 0.00 0.13 0.00 57 1016.0
20260507092409 16 141 4.8 6.4 0.00 0.13 0.00 63 1016.0
20260507092337 16 141 4.8 6.4 0.00 0.13 0.00 63 1016.0
20260507091839 16 104 6.4 9.7 0.00 0.13 0.00 64 1016.0
20260507091338 16 223 3.2 6.4 0.00 0.13 0.00 66 1016.0
20260507090838 16 164 4.8 3.2 0.00 0.13 0.00 68 1016.0
20260507090337 16 123 3.2 3.2 0.00 0.13 0.00 68 1016.0
20260507085839 16 87 1.6 4.8 0.00 0.13 0.00 68 1016.0
20260507085339 16 104 4.8 9.7 0.00 0.13 0.00 69 1016.0
20260507084838 16 128 3.2 4.8 0.00 0.13 0.00 70 1016.0
20260507084338 16 226 1.6 1.6 0.00 0.13 0.00 71 1016.0
20260507083837 15 130 3.2 4.8 0.00 0.13 0.00 72 1016.0
20260507083337 15 86 3.2 4.8 0.00 0.13 0.00 68 1016.0
20260507082845 15 53 3.2 3.2 0.00 0.13 0.00 73 1016.0
20260507082338 16 76 3.2 6.4 0.00 0.13 0.00 75 1016.0
20260507081839 15 112 4.8 8.0 0.00 0.13 0.00 76 1016.0
20260507080838 15 282 1.6 1.6 0.00 0.13 0.00 78 1016.0
20260507080337 15 64 1.6 3.2 0.00 0.13 0.00 78 1016.0
20260507075337 15 95 4.8 6.4 0.00 0.13 0.00 80 1017.0
20260507074838 15 80 3.2 4.8 0.00 0.13 0.00 81 1017.0
20260507074338 14 158 3.2 3.2 0.00 0.13 0.00 83 1017.0
20260507073837 14 90 4.8 4.8 0.00 0.13 0.00 84 1016.0
20260507073337 14 166 1.6 4.8 0.00 0.13 0.00 86 1016.0
20260507072839 14 158 3.2 3.2 0.00 0.13 0.00 87 1016.0
20260507072337 13 158 3.2 3.2 0.00 0.13 0.00 87 1017.0
20260507071839 13 127 1.6 3.2 0.00 0.13 0.00 88 1017.0
20260507071337 13 204 1.6 0.0 0.00 0.13 0.00 89 1017.0
20260507070838 13 103 0.0 3.2 0.00 0.13 0.00 89 1017.0
20260507070339 12 90 1.6 3.2 0.00 0.13 0.00 88 1017.0
20260507065837 12 108 3.2 4.8 0.00 0.13 0.00 89 1017.0
20260507065337 12 82 1.6 0.0 0.00 0.13 0.00 89 1017.0
20260507064839 12 116 1.6 1.6 0.00 0.13 0.00 89 1017.0
20260507064338 12 22 1.6 0.0 0.00 0.13 0.00 89 1017.0
20260507063838 11 0 3.2 1.6 0.00 0.13 0.00 90 1017.0
20260507063338 11 25 0.0 0.0 0.00 0.13 0.00 90 1017.0
20260507062337 11 339 0.0 0.0 0.00 0.13 0.00 89 1017.0
20260507061837 11 338 0.0 0.0 0.00 0.13 0.00 89 1017.0
20260507061157 11 86 1.6 3.2 0.00 0.13 0.00 86 1017.0
20260507061102 11 86 1.6 3.2 0.00 0.13 0.00 86 1017.0
20260507060838 11 86 1.6 3.2 0.00 0.13 0.00 86 1017.0
20260507060338 11 112 1.6 1.6 0.00 0.13 0.00 89 1017.0
20260507054842 11 134 1.6 1.6 0.00 0.13 0.00 91 1017.0
20260507052342 7 153 3.2 3.2 0.00 0.13 0.00 94 1016.0
20260507051839 7 158 1.6 1.6 0.00 0.13 0.00 94 1016.0
20260507050844 7 112 0.0 0.0 0.00 0.13 0.00 93 1016.0
20260507045341 7 158 0.0 0.0 0.00 0.13 0.00 93 1016.0
20260507044840 7 158 1.6 1.6 0.00 0.13 0.00 93 1016.0
20260507043841 7 112 0.0 0.0 0.00 0.13 0.00 92 1016.0
20260507043339 7 112 0.0 0.0 0.00 0.13 0.00 92 1016.0
20260507041340 7 90 0.0 0.0 0.00 0.13 0.00 92 1016.0
20260507040339 7 292 1.6 3.2 0.00 0.13 0.00 92 1015.0
20260507035342 8 160 3.2 4.8 0.00 0.13 0.00 91 1015.0
20260507034840 8 172 4.8 6.4 0.00 0.13 0.00 91 1015.0
20260507033432 7 168 3.2 4.8 0.00 0.13 0.00 91 1016.0
20260507033340 7 168 3.2 4.8 0.00 0.13 0.00 91 1016.0
20260507032339 7 158 3.2 3.2 0.00 0.13 0.00 91 1016.0
20260507031340 7 116 1.6 3.2 0.00 0.13 0.00 90 934.0
20260507030841 8 158 0.0 0.0 0.00 0.13 0.00 90 934.0
20260507030346 8 158 0.0 0.0 0.00 0.13 0.00 90 934.0
20260507025341 8 158 1.6 3.2 0.00 0.13 0.00 90 1016.0
20260507024842 8 158 1.6 3.2 0.00 0.13 0.00 90 1016.0
20260507023339 8 158 0.0 0.0 0.00 0.13 0.00 89 1016.0
20260507022840 8 158 0.0 0.0 0.00 0.13 0.00 89 1016.0
20260507022338 8 158 0.0 0.0 0.00 0.13 0.00 89 1016.0
20260507021340 8 158 0.0 0.0 0.00 0.13 0.00 88 1016.0
20260507020841 8 158 0.0 0.0 0.00 0.13 0.00 88 1016.0
20260507020341 8 158 0.0 0.0 0.00 0.13 0.00 88 1016.0
20260507014840 8 158 0.0 0.0 0.00 0.13 0.00 88 1016.0
20260507014340 8 158 1.6 1.6 0.00 0.13 0.00 87 1016.0
20260507013841 8 158 3.2 3.2 0.00 0.13 0.00 87 1016.0
20260507013340 8 169 3.2 3.2 0.00 0.13 0.00 87 1016.0
20260507012840 8 180 1.6 1.6 0.00 0.13 0.00 87 1016.0
20260507012342 8 135 0.0 0.0 0.00 0.13 0.00 86 1016.0
20260507011840 8 112 0.0 0.0 0.00 0.13 0.00 86 1016.0
20260507010338 9 194 1.6 3.2 0.00 0.13 0.00 86 1016.0
20260507005842 9 252 4.8 6.4 0.00 0.13 0.00 85 1016.0
20260507004843 10 248 4.8 6.4 0.00 0.13 0.00 85 1017.0
20260507004339 10 248 6.4 6.4 0.00 0.13 0.00 85 1017.0
20260507003915 10 248 4.8 6.4 0.00 0.13 0.00 85 1016.0
20260507003841 10 248 4.8 6.4 0.00 0.13 0.00 85 1016.0
20260507003342 10 248 6.4 6.4 0.00 0.13 0.00 84 1016.0
20260507002841 10 248 4.8 6.4 0.00 0.13 0.00 84 1016.0
20260507002342 10 252 4.8 6.4 0.00 0.13 0.00 84 1017.0
20260507001839 10 248 4.8 4.8 0.00 0.13 0.00 84 1017.0
20260507001342 10 251 4.8 6.4 0.00 0.13 0.00 83 1017.0
20260507000343 10 248 3.2 4.8 0.00 0.13 0.00 82 1017.0
20260506235341 10 251 4.8 4.8 0.00 0.13 0.00 82 1016.0
20260506234342 10 248 4.8 4.8 0.00 0.13 0.00 81 1016.0
20260506233840 10 248 3.2 4.8 0.00 0.13 0.00 80 1016.0
20260506233341 11 252 4.8 4.8 0.00 0.13 0.00 80 1016.0
20260506231343 11 248 4.8 6.4 0.00 0.13 0.00 78 1017.0
20260506230843 11 248 4.8 6.4 0.00 0.13 0.00 78 1017.0
20260506230340 11 251 6.4 6.4 0.00 0.13 0.00 77 1017.0
20260506225843 11 248 4.8 6.4 0.00 0.13 0.00 77 1017.0
20260506224840 12 254 4.8 6.4 0.00 0.13 0.00 77 1017.0
20260506224340 12 248 3.2 3.2 0.00 0.13 0.00 76 1017.0
20260506223841 12 248 3.2 4.8 0.00 0.13 0.00 76 1017.0
20260506222340 12 248 4.8 6.4 0.00 0.13 0.00 75 1017.0
20260506221839 12 248 4.8 8.0 0.00 0.13 0.00 74 1017.0
20260506221351 12 257 6.4 6.4 0.00 0.13 0.00 74 1017.0
20260506215838 12 250 4.8 8.0 0.00 0.13 0.13 74 1017.0
20260506215343 12 248 4.8 9.7 0.00 0.13 0.13 73 1017.0
20260506213842 12 250 4.8 6.4 0.00 0.13 0.13 73 1016.0
20260506213343 12 266 6.4 9.7 0.00 0.13 0.13 73 1016.0
20260506212840 12 273 6.4 6.4 0.00 0.13 0.13 73 1016.0
20260506210839 12 248 8.0 9.7 0.00 0.13 0.13 73 1016.0
20260506210339 12 248 9.7 9.7 0.00 0.13 0.13 73 1016.0
20260506205844 12 252 8.0 9.7 0.00 0.13 0.13 73 1016.0
20260506205342 12 258 6.4 6.4 0.00 0.13 0.13 73 1016.0
20260506204841 12 270 6.4 6.4 0.00 0.13 0.13 72 1016.0
20260506203343 12 266 6.4 8.0 0.00 0.13 0.13 72 1016.0
20260506202340 12 249 4.8 9.7 0.00 0.13 0.13 72 1015.0
20260506201843 12 254 8.0 12.9 0.00 0.13 0.13 71 1015.0
20260506201343 12 253 8.0 6.4 0.00 0.13 0.13 71 1015.0
20260506200943 12 232 8.0 9.7 0.00 0.13 0.13 71 1016.0
20260506200841 12 232 8.0 9.7 0.00 0.13 0.13 71 1016.0
20260506195843 12 248 6.4 6.4 0.00 0.13 0.13 70 1016.0
20260506195340 12 244 9.7 9.7 0.00 0.13 0.13 70 1016.0
20260506194840 12 259 8.0 12.9 0.00 0.13 0.13 69 1016.0
20260506193841 13 261 8.0 9.7 0.00 0.13 0.13 69 1016.0
20260506193343 13 300 9.7 14.5 0.00 0.13 0.13 69 1016.0
20260506192841 13 262 8.0 17.7 0.00 0.13 0.13 69 1016.0
20260506185839 13 313 6.4 8.0 0.00 0.13 0.13 68 1015.0
20260506184840 13 266 8.0 9.7 0.00 0.13 0.13 68 1015.0
20260506184344 13 257 9.7 12.9 0.00 0.13 0.13 68 1015.0
20260506183931 13 270 8.0 8.0 0.00 0.13 0.13 68 1015.0
20260506183840 13 270 8.0 8.0 0.00 0.13 0.13 68 1015.0
20260506183340 13 263 9.7 11.3 0.00 0.13 0.13 67 1015.0
20260506182917 13 248 8.0 14.5 0.00 0.13 0.13 67 1015.0
20260506182841 13 248 8.0 14.5 0.00 0.13 0.13 67 1015.0
20260506181840 13 268 11.3 16.1 0.00 0.13 0.13 67 1015.0
20260506180842 14 287 9.7 9.7 0.00 0.13 0.13 66 1015.0
20260506180339 14 292 12.9 17.7 0.00 0.13 0.13 66 1015.0
20260506175837 14 302 11.3 14.5 0.00 0.13 0.13 66 1015.0
20260506175337 15 277 8.0 9.7 0.00 0.13 0.13 65 1015.0
20260506174839 14 295 14.5 22.5 0.00 0.13 0.13 66 1015.0
20260506173838 15 322 16.1 17.7 0.00 0.13 0.13 65 1015.0
20260506173337 15 316 16.1 19.3 0.00 0.13 0.13 67 1015.0
20260506172912 15 338 11.3 14.5 0.00 0.13 0.13 68 1015.0
20260506172839 15 338 11.3 14.5 0.00 0.13 0.13 68 1015.0
20260506172338 15 304 11.3 16.1 0.00 0.13 0.13 68 1015.0
20260506171838 15 302 11.3 16.1 0.00 0.13 0.13 68 1015.0
20260506171338 15 320 14.5 20.9 0.00 0.13 0.13 69 1015.0
20260506170916 15 311 14.5 16.1 0.00 0.13 0.13 70 1014.0
20260506170837 15 311 14.5 16.1 0.00 0.13 0.13 70 1014.0
20260506170339 15 291 9.7 11.3 0.00 0.13 0.13 70 1014.0
20260506165838 15 299 14.5 19.3 0.00 0.13 0.13 71 1014.0
20260506165338 15 296 9.7 14.5 0.00 0.13 0.13 71 1014.0
20260506164838 15 282 9.7 9.7 0.00 0.13 0.13 71 1014.0
20260506164337 15 292 12.9 19.3 0.00 0.13 0.13 73 1014.0
20260506163908 15 329 14.5 16.1 0.00 0.13 0.13 73 1014.0
20260506163837 15 329 14.5 16.1 0.00 0.13 0.13 73 1014.0
20260506163337 15 323 9.7 11.3 0.00 0.13 0.13 73 1014.0
20260506162839 15 291 12.9 12.9 0.00 0.13 0.13 73 1014.0
20260506162338 15 303 12.9 16.1 0.00 0.13 0.13 73 1014.0
20260506161838 15 273 9.7 11.3 0.00 0.13 0.13 74 1014.0
20260506161337 15 297 14.5 20.9 0.00 0.13 0.13 74 1014.0
20260506160837 15 296 8.0 8.0 0.00 0.13 0.13 74 1014.0
20260506160340 15 304 9.7 9.7 0.00 0.13 0.13 73 1014.0
20260506155911 15 264 8.0 14.5 0.00 0.13 0.13 72 1014.0
20260506155840 15 264 8.0 14.5 0.00 0.13 0.13 72 1014.0
20260506155341 15 253 11.3 16.1 0.00 0.13 0.13 71 1014.0
20260506154837 16 274 9.7 19.3 0.00 0.13 0.13 71 1014.0
20260506154337 16 260 12.9 14.5 0.00 0.13 0.13 71 1014.0
20260506153838 16 288 9.7 14.5 0.00 0.13 0.13 71 1014.0
20260506153338 16 272 9.7 14.5 0.00 0.13 0.13 71 1014.0
20260506152909 16 270 12.9 8.0 0.00 0.13 0.13 71 1014.0
20260506152838 16 270 12.9 8.0 0.00 0.13 0.13 71 1014.0
20260506152338 16 230 14.5 16.1 0.00 0.13 0.13 72 1014.0
20260506151837 16 260 11.3 12.9 0.00 0.20 0.13 72 1014.0